Temp
9 9 9 9 9 10 9 9 9 9 10 11 12 13 13 13 14 13 12 12 12 13 14 16 16 17 18 18 18 19 16 17 19 20 19 21 19 19 19 19 20 21 22 20 20
9 9 9 9 9 9 9 9 9 10 10 11 12 13 13 14 14 13 12 12 12 12 14 15 16 17 17 18 17 16 16 19 19 18 17 18 17 17 17 17 18 19 21 20 20
9 9 9 9 10 10 10 10 12 12 10 11 12 13 14 14 15 14 12 12 13 13 14 15 16 17 16 17 17 16 15 17 17 17 16 15 15 16 15 15 16 17 18 19 19
9 9 11 12 11 11 11 12 12 12 12 12 13 13 14 13 14 14 13 13 13 14 14 15 15 15 15 16 16 14 16 17 16 16 15 14 15 14 14 14 15 16 17 17 17
10 11 11 12 12 12 12 12 12 12 13 13 13 14 14 15 13 13 13 13 14 13 14 15 14 14 14 14 15 14 15 15 15 15 14 15 14 14 14 15 16 16 17 16 16
9 11 12 12 12 12 12 12 12 12 13 13 13 14 14 13 13 13 13 13 13 13 13 14 14 14 13 14 13 14 14 13 14 14 15 14 14 14 14 15 16 16 16 16 15
9 10 11 12 12 12 12 12 12 12 13 13 14 14 14 12 13 13 13 13 13 13 13 13 13 13 13 13 14 13 11 13 14 15 15 14 12 13 14 15 15 16 16 16 15
10 10 11 12 12 12 13 13 12 13 12 13 14 14 13 13 13 13 13 13 13 13 12 12 12 12 13 13 13 12 12 11 15 15 15 14 11 14 15 15 14 15 15 15 15
10 10 11 11 12 12 12 13 13 13 13 14 14 16 14 14 13 13 13 12 13 13 12 12 13 12 13 11 10 14 10 11 12 14 14 13 12 13 14 15 14 14 14 15 14
10 10 10 11 12 12 12 13 13 13 14 14 14 15 14 12 12 13 12 13 13 13 13 13 12 11 12 10 8 9 9 10 9 12 12 12 12 14 14 14 14 14 14 14 13
10 10 10 10 11 12 12 13 13 14 12 12 12 13 13 12 13 13 11 13 14 14 13 14 11 11 11 12 11 10 10 10 10 12 13 11 12 13 14 14 13 12 13 13 12
10 10 10 10 10 10 11 11 7 7 11 13 13 13 12 12 12 12 11 10 12 12 13 12 11 12 12 12 11 11 9 9 11 13 11 10 10 12 13 10 10 9 8 9 12
10 10 11 10 11 10 8 6 6 7 11 12 13 12 12 12 12 11 10 10 11 11 11 10 12 13 12 11 10 9 9 10 10 11 11 9 9 8 11 10 9 7 7 8 10
10 10 11 12 11 11 8 6 6 7 10 12 13 12 13 13 11 12 10 9 10 9 10 11 12 11 10 10 9 7 11 11 10 9 8 8 8 8 8 7 6 5 5 6 6
9 10 10 10 9 9 7 6 6 7 14 12 12 12 13 11 11 11 10 9 8 8 10 10 11 9 8 7 9 9 11 10 9 9 8 9 8 6 7 5 4 4 4 4 4
9 10 10 10 10 7 6 6 7 11 10 12 12 11 11 11 11 11 9 8 10 8 10 11 12 11 8 9 11 11 9 10 11 7 9 6 8 6 5 4 3 3 2 2 3
10 10 9 8 8 7 6 8 10 11 12 10 9 10 11 9 10 10 5 3 3 2 4 8 12 12 12 9 10 9 8 5 6 5 7 8 8 5 4 3 2 2 2 1 1
10 9 9 9 8 7 7 10 11 11 9 11 10 10 10 8 9 8 7 6 4 4 3 4 5 10 11 9 8 8 8 7 6 5 7 9 7 5 4 3 2 1 1 1 1
10 10 10 9 9 7 9 8 10 8 9 8 10 10 10 9 7 7 5 5 5 3 1 3 6 8 11 10 10 8 7 8 7 7 8 8 7 6 5 3 2 1 1 1 0
9 10 11 10 10 8 8 10 10 9 8 8 8 9 9 7 6 4 4 6 5 3 5 4 2 8 9 11 10 9 9 7 6 5 6 8 6 5 4 3 2 1 1 1 0
9 11 10 11 10 9 7 9 10 9 8 7 7 8 8 5 2 2 4 6 6 5 4 4 3 4 8 8 6 7 5 7 7 7 7 6 6 5 3 2 2 1 1 1 0
9 11 10 11 8 8 8 8 8 8 8 7 7 8 7 6 3 4 4 5 5 5 2 4 3 1 7 9 9 8 6 6 5 5 6 8 5 5 3 2 1 1 0 0 0
10 11 10 9 7 8 8 8 8 8 8 7 7 7 7 6 2 5 7 6 5 4 3 2 2 0 4 6 9 5 7 5 5 5 7 6 7 6 4 4 2 0 -0 0 -0
10 9 9 6 5 10 8 9 7 7 8 7 7 7 7 6 6 4 6 7 6 5 5 4 3 1 1 2 3 1 4 5 5 5 4 6 5 5 3 2 1 1 0 0 -0
9 8 7 8 7 7 5 6 8 6 6 7 6 6 4 1 2 4 6 6 6 4 4 1 0 1 3 4 4 4 3 2 2 5 5 4 3 5 4 1 -2 -2 0 0 -0
8 8 7 6 6 6 5 5 8 6 5 5 4 7 5 1 2 0 1 4 4 3 -1 -1 -1 2 0 6 6 4 4 3 3 5 5 6 6 6 6 2 -0 -3 -2 -0 -0
6 6 7 6 5 5 6 7 7 6 6 6 5 5 4 5 6 5 5 4 2 3 2 0 -1 -1 -0 5 -1 2 -1 3 4 4 5 5 5 6 4 3 1 -2 -4 -2 -1
Height
839 836 833 830 827 824 821 818 815 812 810 809 808 807 806 805 806 805 806 812 807 803 797 793 788 784 781 779 780 777 790 783 773 769 769 758 765 762 765 768 765 761 759 763 765
841 838 834 831 828 825 822 818 815 813 811 809 807 807 806 805 805 807 814 811 807 803 798 794 789 785 782 781 782 785 787 775 770 772 775 769 774 775 775 775 771 766 759 760 764
841 838 835 832 829 825 821 817 815 813 811 809 807 806 807 807 805 812 813 810 807 803 800 795 792 787 786 783 783 786 787 777 776 776 778 780 778 779 781 779 777 772 766 763 765
842 838 834 831 828 825 822 818 816 814 812 811 809 808 808 808 814 815 813 810 806 803 799 796 794 791 792 789 786 795 784 779 779 780 782 785 781 781 781 778 775 771 768 765 766
842 838 835 831 828 825 821 818 816 815 813 812 811 809 809 810 818 816 813 809 805 802 799 798 796 795 794 793 791 791 787 783 782 783 782 780 781 781 775 772 770 769 767 766 766
845 840 836 832 829 825 822 820 818 816 815 813 812 809 809 817 820 817 813 809 806 804 802 799 798 798 799 794 796 791 791 789 786 782 779 777 774 776 771 768 767 765 764 763 763
846 842 837 833 829 825 821 819 819 818 817 815 813 812 814 824 820 817 814 810 807 806 805 803 802 802 798 797 791 792 797 788 779 774 774 773 775 775 767 762 760 758 757 758 758
848 843 838 835 830 826 822 820 819 818 817 816 814 813 818 820 820 817 813 809 807 806 805 804 804 802 801 799 795 791 789 793 773 773 772 774 768 767 765 761 760 757 757 755 754
850 845 840 835 831 826 823 822 820 819 818 816 816 813 821 821 820 817 814 811 808 806 805 804 803 801 798 801 802 783 800 795 787 777 774 773 768 764 763 761 758 755 754 753 753
851 846 841 837 832 827 824 822 822 821 819 818 818 820 823 825 821 818 814 809 807 804 803 803 802 804 800 804 819 810 808 800 802 780 778 771 762 755 755 753 750 749 748 747 748
851 847 842 836 834 829 823 822 825 824 825 829 832 829 829 828 821 819 816 807 803 800 800 797 808 804 804 802 799 800 797 795 787 775 768 769 763 754 751 749 750 750 745 743 742
851 847 843 838 834 831 827 828 838 840 833 832 833 831 832 829 824 821 818 816 809 807 802 804 807 801 800 797 797 796 801 793 776 765 773 770 763 755 749 759 760 760 757 749 736
851 847 843 839 837 835 834 838 839 839 832 833 833 832 833 831 829 828 826 822 815 810 811 814 805 800 799 799 802 802 800 787 782 775 774 773 765 771 760 762 763 764 759 748 739
853 849 843 839 839 837 838 841 838 838 834 835 833 835 832 828 831 831 829 831 822 822 816 809 805 805 807 806 808 809 785 780 777 783 786 783 783 775 772 776 775 769 763 753 744
853 850 846 842 843 841 844 840 839 839 824 837 837 836 832 835 838 831 833 829 831 831 824 812 809 812 816 815 807 799 782 778 774 776 781 777 779 793 776 783 783 779 770 761 751
853 850 847 844 844 845 843 841 841 834 849 838 839 840 835 834 836 834 838 834 830 829 818 811 804 809 816 807 794 790 786 768 757 779 773 791 780 794 798 799 791 785 777 769 759
853 850 847 845 846 842 842 842 836 838 837 848 850 844 840 845 840 839 853 859 867 867 853 827 804 801 803 804 798 799 794 812 807 806 790 778 779 805 805 803 800 794 784 776 768
851 850 847 843 842 840 841 838 841 847 852 848 847 844 844 851 846 847 849 859 863 866 871 859 844 811 807 812 815 806 805 808 818 816 790 772 793 805 807 807 802 797 789 781 772
848 848 848 845 841 840 840 850 854 863 859 860 848 845 842 849 856 854 865 865 866 873 885 872 844 819 809 808 809 811 815 807 809 795 786 784 790 800 802 806 804 802 796 790 781
849 846 844 843 841 840 845 850 851 857 861 862 858 852 852 860 863 870 871 865 867 873 871 869 874 825 813 805 808 811 810 815 814 822 814 788 800 811 805 806 809 805 802 797 792
851 846 843 842 841 843 857 855 854 860 862 866 863 858 855 871 882 884 875 865 867 869 870 869 875 846 820 823 829 821 835 821 816 812 807 813 813 819 822 818 817 814 809 803 799
852 847 844 842 848 851 853 856 859 861 863 864 865 861 860 863 876 875 874 868 868 869 880 870 874 880 829 817 817 820 830 833 834 830 818 799 821 817 823 822 821 819 815 809 806
851 848 845 843 854 852 855 855 859 860 860 863 863 862 861 866 883 866 860 863 866 870 875 880 878 887 850 832 820 839 830 837 837 831 816 815 811 814 818 820 823 823 820 815 811
854 852 848 851 855 845 850 850 858 860 858 860 863 863 863 863 863 871 864 860 862 867 871 873 872 880 883 865 854 864 846 840 838 831 838 825 825 821 824 827 830 827 822 820 817
855 854 855 851 852 855 860 859 854 862 863 862 865 864 868 886 878 871 861 863 863 869 872 882 884 873 859 848 846 842 847 850 850 831 833 833 836 825 826 829 834 832 826 823 822
854 857 857 857 857 859 862 862 852 860 866 864 870 856 862 879 873 884 879 869 868 872 884 886 889 868 867 833 832 838 836 838 838 828 828 818 819 822 818 825 827 833 832 829 829
855 855 855 858 859 860 853 852 851 856 858 857 862 863 864 862 860 861 862 865 869 872 873 883 888 884 879 837 864 851 857 837 831 831 825 827 825 821 826 827 832 834 838 835 831
Wind_Speed
22 22 21 21 21 21 21 21 20 16 14 10 7 2 3 5 15 22 19 18 18 20 22 18 18 18 4 3 2 3 3 4 7 6 7 9 8 8 9 5 7 8 5 8 15
23 23 22 22 21 22 22 22 18 13 13 11 9 3 3 6 5 23 15 18 20 21 21 19 14 15 3 3 2 2 3 4 8 7 8 12 10 11 9 12 12 10 10 12 14
23 23 23 22 21 23 24 21 14 11 11 11 9 4 7 6 4 10 19 20 22 20 18 15 14 8 5 1 4 6 3 10 12 10 9 12 13 9 11 12 11 14 12 8 8
24 24 24 23 22 24 24 17 12 10 10 8 10 8 3 4 3 14 20 21 23 18 16 13 9 6 5 4 3 3 9 8 8 9 8 9 10 11 11 14 12 17 17 14 11
25 27 26 24 21 24 24 12 10 9 8 8 6 4 5 6 6 14 20 24 19 16 12 6 8 6 7 9 8 9 8 10 10 12 12 13 12 13 15 13 14 14 16 14 10
26 28 27 24 20 25 22 11 9 6 7 9 9 11 3 6 9 15 19 25 18 15 12 7 5 7 5 6 5 9 10 13 12 14 14 16 15 8 15 12 14 13 13 13 10
26 28 27 25 20 25 19 9 6 7 3 5 8 6 13 5 11 14 19 24 14 11 9 9 10 5 8 7 6 8 12 13 15 9 3 7 11 12 16 17 17 14 10 9 10
27 29 28 26 20 25 13 10 5 5 8 5 5 7 4 2 16 17 22 24 14 8 6 6 4 5 3 7 6 9 9 5 3 6 5 3 23 12 14 9 11 12 11 10 9
28 30 29 26 18 22 7 11 12 4 6 8 5 7 3 7 20 14 23 21 13 4 2 2 3 3 1 6 5 4 5 13 12 15 14 10 17 7 10 13 17 15 13 12 11
27 30 30 26 18 21 11 3 7 13 4 5 12 2 5 10 15 16 28 21 4 9 8 5 3 4 4 5 5 9 11 12 12 9 18 20 18 15 14 18 15 11 11 12 12
27 30 30 24 15 21 15 3 2 2 15 6 5 4 7 18 9 23 31 19 9 6 4 2 2 3 8 7 8 8 13 16 17 20 16 12 18 18 15 13 10 13 14 10 10
26 30 30 21 12 20 17 6 5 3 4 6 2 7 6 13 7 20 29 10 7 7 10 1 1 8 8 11 10 10 11 16 15 9 14 14 21 20 10 10 10 16 16 16 8
25 29 29 16 9 12 17 10 4 4 3 3 3 4 5 8 7 14 17 10 7 9 11 7 5 9 10 12 10 11 15 13 15 14 14 7 5 10 11 13 18 18 17 17 16
24 27 28 14 4 14 6 10 3 2 1 6 6 5 6 4 2 13 15 4 6 8 9 3 8 9 12 10 11 11 10 18 19 11 2 5 4 13 10 13 17 18 18 16 16
22 25 24 15 7 5 9 7 2 2 2 5 3 5 1 7 6 12 15 6 5 12 4 6 7 9 7 3 10 10 17 20 21 15 3 2 4 4 8 16 20 18 19 16 15
19 22 20 8 3 9 8 2 2 1 3 3 3 8 8 10 4 9 7 8 5 5 5 8 9 1 4 9 12 15 12 22 1 3 1 5 2 5 8 14 16 16 17 16 14
18 20 14 6 4 10 3 3 1 5 1 5 4 6 7 6 5 10 4 9 6 8 7 10 3 3 7 10 8 18 12 4 5 3 1 7 5 4 9 12 12 14 16 15 12
18 19 9 3 11 7 2 1 7 1 3 3 4 9 3 7 5 7 7 5 9 7 4 5 7 10 10 7 6 10 6 4 5 3 5 4 5 2 6 11 12 15 15 15 15
14 6 4 6 13 3 1 5 1 2 2 6 6 4 2 4 5 7 4 5 3 5 4 6 5 8 7 7 6 7 8 6 4 8 4 4 2 3 12 11 12 15 14 16 16
9 4 2 10 10 1 3 3 2 3 2 3 4 4 4 6 6 6 6 2 4 3 3 4 7 7 7 5 4 6 9 4 3 5 5 3 4 7 19 17 13 14 15 14 13
6 3 1 10 4 3 3 3 2 3 1 2 2 3 4 3 2 3 2 1 5 5 0 5 2 8 6 3 4 5 5 5 3 3 3 3 2 4 7 10 11 11 12 12 12
4 3 5 5 2 2 2 3 1 4 2 1 3 2 1 3 1 2 2 3 4 5 3 3 3 5 5 6 3 2 5 5 2 6 4 3 2 4 5 5 8 9 10 10 10
3 3 5 4 2 1 3 3 1 4 4 3 3 3 3 1 1 4 3 6 4 3 3 4 2 5 6 4 1 3 5 8 7 3 2 3 2 7 9 9 9 10 9 8 10
2 3 2 4 2 1 2 2 3 0 1 2 1 0 1 3 5 2 4 2 4 3 0 3 3 5 4 5 5 6 12 6 5 2 5 2 5 9 8 7 7 8 9 8 9
1 2 1 2 1 2 2 1 3 3 3 5 3 6 4 2 2 3 2 4 3 5 2 3 4 4 11 16 13 14 9 4 3 5 3 4 2 5 5 4 1 2 6 8 9
2 2 2 2 1 3 1 4 5 2 6 4 4 3 7 5 5 4 4 3 3 3 2 1 4 6 5 6 2 6 10 9 4 4 7 6 2 4 2 5 6 6 6 7 7
2 1 1 1 1 1 4 3 4 7 3 2 6 3 4 6 5 4 1 4 5 2 0 1 3 5 5 7 5 3 5 2 3 4 2 2 2 4 5 5 3 3 3 4 6
Wind_Direction
16 13 10 7 4 0 358 355 354 356 356 2 12 92 106 57 64 42 29 358 350 342 342 349 355 345 266 286 327 332 284 270 278 318 339 33 29 357 2 334 302 283 348 80 20
14 11 9 6 3 360 357 354 356 6 7 0 3 198 203 343 308 47 7 358 354 348 345 343 346 340 344 343 300 290 261 273 29 359 341 330 352 354 335 320 307 319 316 62 20
12 10 8 5 3 1 359 358 9 10 10 8 11 17 215 318 275 24 357 349 343 339 335 327 331 323 322 47 15 341 262 327 330 345 357 331 319 322 308 290 287 295 300 354 7
10 8 9 8 6 2 359 6 15 13 14 32 50 56 177 273 49 358 351 344 338 337 330 340 336 349 319 337 45 304 291 310 332 340 339 310 308 296 281 281 292 293 296 302 309
10 9 9 8 7 3 0 12 16 21 41 51 36 1 304 73 31 349 347 346 349 349 341 347 325 356 342 337 323 268 288 319 321 315 299 290 282 279 277 270 264 273 280 288 295
9 9 9 8 8 2 1 11 20 37 82 52 25 11 304 74 342 352 351 348 353 353 344 335 328 334 298 283 303 318 315 303 294 283 275 270 275 285 274 281 274 262 257 264 269
9 7 7 6 7 2 1 13 28 29 300 341 7 6 66 42 356 345 352 351 346 340 337 356 341 311 340 298 349 307 292 286 273 258 302 355 282 253 272 266 257 258 260 275 263
10 8 7 5 8 2 13 18 351 356 16 13 358 327 75 1 352 357 352 348 344 354 341 341 330 290 287 323 285 253 255 270 272 281 275 241 278 280 287 322 319 312 305 291 264
9 8 4 4 9 5 21 45 34 10 10 17 345 309 59 360 359 346 358 333 329 331 342 317 269 313 260 237 299 338 308 327 321 325 308 286 277 252 285 283 276 262 266 270 275
6 5 2 1 11 6 8 294 48 30 337 315 8 122 55 354 327 332 349 337 295 289 220 234 252 252 259 11 320 319 318 307 293 289 297 279 272 280 259 256 268 276 262 256 258
3 2 359 359 9 16 16 293 241 178 33 55 38 30 355 340 330 8 352 326 323 219 336 100 300 19 6 329 298 284 300 294 287 281 290 319 302 298 296 287 310 324 281 258 241
1 359 359 358 28 23 40 51 48 343 80 52 33 51 21 342 355 1 359 17 343 344 3 3 170 24 326 317 301 303 300 294 286 326 340 301 290 291 311 33 4 345 340 327 260
354 357 358 356 29 28 54 40 352 342 253 95 51 16 336 340 13 4 7 328 342 338 351 306 18 342 329 325 338 321 290 286 316 329 294 340 297 21 7 22 355 342 336 328 304
348 351 356 357 15 350 53 352 8 360 164 18 359 46 344 327 165 30 13 11 353 342 338 297 330 353 334 322 352 316 304 305 296 315 305 70 282 42 354 355 348 346 339 332 338
344 348 354 22 340 35 321 344 344 287 109 23 15 312 23 50 326 3 31 352 9 324 302 309 330 337 326 268 314 275 308 293 284 269 239 231 253 351 353 349 348 341 341 342 339
340 340 350 353 339 349 336 355 340 2 5 53 11 358 357 36 30 344 30 9 49 325 269 298 286 256 210 286 311 354 309 302 335 84 187 252 258 36 2 342 340 343 347 349 346
334 335 340 4 344 332 8 247 56 69 129 354 335 342 314 357 12 13 75 48 39 360 2 316 331 87 357 333 326 338 335 336 354 9 70 293 78 49 4 356 349 345 346 351 352
319 324 317 315 342 345 251 244 56 83 14 9 315 307 43 9 8 4 10 26 51 15 296 342 337 24 348 354 301 318 354 358 310 334 295 298 2 78 38 6 356 357 353 3 10
326 340 293 279 338 356 254 52 27 64 316 340 289 299 88 100 9 358 85 22 74 45 25 347 279 333 345 332 352 325 351 270 261 259 255 110 9 197 6 14 6 359 3 9 13
330 295 209 328 336 301 59 109 61 58 355 289 342 28 333 18 16 23 19 37 11 116 83 335 295 285 318 326 31 356 356 348 330 343 323 88 53 342 348 355 1 3 3 10 13
317 284 263 346 2 43 87 70 109 100 53 350 312 318 358 50 84 320 310 200 40 357 36 300 216 296 312 58 13 342 11 349 270 278 318 328 342 9 339 347 353 0 359 4 17
306 288 349 350 55 336 95 138 20 150 156 199 287 288 358 38 249 243 243 193 48 343 346 347 292 281 278 350 130 308 52 3 3 324 296 282 20 327 28 8 0 3 360 2 22
293 289 352 348 117 158 148 136 264 169 198 198 237 228 107 212 8 212 312 134 146 355 28 337 263 307 338 21 58 31 325 358 311 215 292 348 44 2 26 25 18 9 360 9 18
296 303 351 39 326 11 116 183 185 291 263 179 284 2 229 271 192 254 320 74 159 120 22 328 270 221 233 225 320 310 312 319 332 288 324 62 321 359 0 359 14 8 354 22 24
264 277 10 302 291 81 72 158 175 209 235 179 232 226 170 201 330 240 237 329 102 114 54 65 270 245 262 275 277 268 273 267 239 277 286 301 358 355 349 304 347 8 7 19 27
294 274 342 40 69 84 100 219 204 126 161 213 205 190 196 186 187 214 90 224 249 125 122 350 281 333 286 241 261 285 285 276 253 272 273 300 87 44 37 87 23 42 13 25 35
229 282 297 145 118 137 211 231 217 135 212 192 203 241 242 243 254 313 265 224 216 254 72 226 351 336 273 347 335 344 239 216 280 232 297 303 18 16 20 40 49 350 61 44 19